Wind_Speed
60 66 72 76 78 81 85 88 90 90 87 79 72 68 67 68 67 66 64 62 60 59 58 57 57 57 57 57 59 63 68 71 72 70 70 72 79 86 91 94 95 93 90
63 69 74 76 79 83 86 88 89 86 80 74 71 70 70 68 65 62 59 57 55 54 52 51 50 50 51 53 55 57 62 68 73 73 71 69 71 77 83 90 95 96 93
66 71 74 77 80 83 86 87 86 81 75 71 70 70 69 64 58 53 51 51 49 48 47 45 44 43 43 44 47 51 55 60 66 74 75 73 71 72 77 83 91 96 96
68 72 74 77 81 84 86 86 82 76 72 71 72 71 65 58 52 49 48 49 49 48 47 45 44 42 41 41 41 43 48 52 58 66 74 76 74 72 74 79 85 93 97
69 71 74 78 82 85 85 83 77 72 71 72 72 69 61 53 49 49 50 51 51 51 50 48 46 44 43 42 41 40 42 45 51 57 66 74 76 74 73 75 81 88 96
69 71 75 79 83 84 83 78 73 71 72 72 71 66 56 50 49 51 52 53 53 53 52 51 49 47 45 43 42 41 40 41 44 50 58 68 76 77 74 72 75 83 91
69 73 77 80 82 83 80 75 71 71 72 71 69 62 54 50 52 55 56 56 55 55 54 53 51 50 47 45 43 41 40 39 40 44 51 59 70 76 76 73 71 75 84
71 74 77 80 82 81 78 73 70 71 72 70 67 59 53 53 56 59 60 60 59 58 57 55 53 51 49 46 43 42 40 37 37 40 46 52 61 72 75 75 71 69 75
72 74 77 80 81 80 75 71 70 72 71 70 65 58 54 56 59 62 64 64 64 62 61 58 56 52 50 47 44 42 40 37 35 36 41 47 53 63 72 75 73 69 68
72 74 77 79 80 77 73 70 71 72 71 69 65 59 56 59 62 65 66 67 67 67 65 62 58 55 51 49 45 42 39 36 33 33 37 43 47 55 66 72 74 70 65
72 74 77 79 79 75 70 68 70 70 69 68 64 59 59 61 64 67 69 70 72 71 66 61 54 49 45 43 41 40 37 34 32 31 33 39 44 50 60 68 72 70 63
71 74 77 78 77 73 69 68 69 69 68 67 63 60 60 62 65 69 71 74 74 70 61 49 39 32 27 28 30 31 31 30 29 28 30 36 41 46 54 63 68 68 64
71 73 76 77 75 71 68 67 68 67 67 67 64 61 61 63 67 70 73 76 73 63 49 35 23 16 11 10 14 19 22 24 25 26 28 33 38 42 49 58 64 65 63
70 72 74 76 73 70 67 67 67 66 66 67 65 62 62 64 68 71 75 77 70 57 39 24 17 14 11 7 2 7 13 18 20 23 26 30 35 39 45 53 59 61 59
69 71 73 74 72 69 66 66 66 65 66 66 65 64 64 66 69 72 76 77 68 53 35 16 11 11 11 11 6 2 7 12 16 20 24 28 33 37 41 48 53 56 56
68 70 73 73 71 68 66 65 65 64 65 66 66 65 65 66 69 72 76 77 67 51 35 17 3 5 6 7 3 1 3 7 12 17 22 27 31 34 38 43 48 50 51
67 69 72 72 70 67 65 65 64 63 64 65 66 66 66 67 70 72 76 77 69 53 38 23 10 2 4 3 3 4 3 4 8 14 21 26 29 32 36 40 43 44 44
67 68 70 71 69 66 65 64 63 62 63 64 66 66 66 67 69 71 74 77 71 57 41 29 18 8 4 6 6 6 6 4 7 13 20 25 28 31 34 36 38 39 38
66 67 69 70 69 66 64 63 62 61 62 63 65 66 65 66 68 70 73 75 74 63 47 35 26 17 11 8 8 7 5 4 7 13 20 24 28 30 32 33 34 34 33
66 66 68 69 68 65 62 61 61 60 61 62 64 64 64 65 66 69 71 74 75 70 57 42 32 24 18 14 11 8 6 3 7 12 18 24 28 30 31 30 30 30 29
66 65 66 67 66 64 61 60 60 59 60 61 63 63 62 63 64 67 70 72 73 72 66 53 40 31 24 19 14 10 7 4 4 10 16 22 27 30 30 29 28 27 26
65 65 65 65 65 63 60 59 58 58 58 60 61 61 60 61 62 64 67 69 70 70 70 64 51 39 31 24 19 14 9 5 1 7 13 20 26 29 30 29 28 27 25
65 63 63 64 64 62 59 57 57 56 57 58 58 58 59 59 59 61 63 66 67 68 69 68 63 52 40 30 24 19 13 8 4 3 10 18 24 28 29 29 28 27 25
64 62 62 63 62 61 58 56 55 54 55 55 55 56 56 57 58 59 60 62 64 66 67 67 66 62 53 41 30 23 18 13 7 0 7 15 22 27 28 29 28 27 25
63 62 61 61 61 60 58 55 53 52 53 53 53 53 54 55 57 58 58 59 61 63 64 65 65 64 62 55 43 31 23 17 12 5 3 12 20 25 28 28 28 27 26
63 61 59 60 60 59 57 54 51 50 50 50 51 50 51 52 54 56 57 58 58 59 60 62 63 63 62 61 56 45 32 23 16 11 3 7 16 24 28 28 29 28 27
Wind_Direction
331 333 333 333 331 330 328 327 324 322 322 323 323 322 320 318 316 314 311 308 304 301 298 294 289 283 278 272 265 256 249 244 240 236 233 231 230 229 227 226 225 224 225
334 335 335 333 332 330 328 327 325 324 325 326 325 324 322 320 319 317 315 313 310 307 304 300 294 288 283 277 270 263 253 246 241 237 233 231 231 229 227 226 225 223 222
335 336 335 333 332 330 329 328 326 327 327 327 327 325 324 323 322 321 320 319 318 315 311 306 301 294 287 281 275 267 259 250 244 239 234 231 230 230 228 226 224 223 221
337 337 335 333 332 332 331 329 328 329 330 329 328 327 326 326 326 326 325 324 322 319 316 311 305 299 292 286 280 273 264 255 247 241 235 231 228 228 228 227 225 223 221
338 336 335 335 334 333 332 330 330 331 332 331 330 329 329 329 329 329 327 324 321 318 315 311 306 301 295 288 282 278 270 260 250 242 237 231 227 225 225 227 226 223 221
338 337 337 337 336 334 333 331 332 333 333 333 332 331 331 330 329 328 326 322 319 316 312 309 305 300 295 289 283 278 272 264 254 244 238 232 227 224 223 224 226 224 222
340 340 339 338 337 335 333 333 334 335 335 334 333 332 331 330 330 328 326 323 319 314 310 306 302 298 293 288 283 278 273 266 258 247 238 233 227 223 221 220 223 226 223
342 341 340 339 337 336 335 335 336 337 337 336 335 333 332 331 331 329 328 325 321 316 311 305 300 295 290 285 281 276 271 266 259 250 239 232 228 223 220 218 219 223 225
343 342 341 340 339 337 336 337 338 338 338 338 337 335 333 332 332 331 330 327 323 318 313 306 299 293 287 282 278 273 268 263 258 251 240 232 227 223 219 217 216 218 223
344 342 342 341 340 339 338 339 340 340 340 339 338 337 335 334 334 334 332 329 325 320 314 307 300 292 284 278 273 269 264 259 255 251 241 231 225 221 217 215 214 215 219
344 343 343 342 341 340 340 340 341 341 341 341 339 338 338 337 338 337 336 333 329 323 317 311 304 295 283 274 268 263 259 254 251 248 240 230 224 219 215 213 213 214 216
344 344 344 343 342 342 341 342 343 343 343 343 342 341 341 341 342 341 340 338 334 329 326 323 318 308 291 272 260 255 252 248 246 243 237 229 222 217 213 211 211 212 213
345 345 344 344 344 343 343 344 345 345 345 345 345 344 344 345 346 346 345 343 341 339 339 343 352 357 339 290 257 245 241 239 238 237 233 226 219 215 211 209 209 211 213
346 345 345 345 345 345 345 346 346 347 348 348 348 347 348 349 350 351 351 350 349 349 354 9 43 50 35 16 325 229 227 229 229 229 227 222 216 212 208 206 207 210 212
347 346 346 346 347 347 347 347 348 349 350 351 352 351 352 353 354 356 356 356 356 357 1 20 75 85 61 45 49 145 211 219 222 222 221 217 212 208 205 203 205 208 211
347 347 347 348 349 349 348 348 350 351 353 355 355 355 355 356 358 0 1 2 2 2 3 4 39 134 105 75 54 35 229 222 219 217 215 211 206 204 201 200 202 205 210
348 348 348 349 350 350 350 350 352 353 355 357 358 358 359 360 2 4 6 7 7 7 8 6 357 269 225 264 303 314 300 254 225 215 209 204 200 199 198 197 199 203 209
349 349 349 350 351 351 351 352 353 355 357 359 0 1 1 3 5 8 9 11 12 13 13 14 13 2 315 302 320 327 316 275 230 212 205 199 195 194 194 195 197 202 208
350 349 350 351 352 352 352 353 354 356 358 359 2 3 3 5 8 10 13 15 16 18 19 21 24 24 17 358 356 346 329 276 226 207 200 195 192 191 191 192 196 200 206
350 350 351 352 353 353 353 353 355 357 359 0 4 5 5 7 10 12 15 18 19 21 23 24 26 28 28 24 21 11 347 292 224 205 197 193 190 190 189 191 194 197 202
351 351 352 353 354 354 354 354 356 358 360 2 5 7 7 9 11 14 17 20 21 23 25 26 27 27 26 24 23 20 11 346 230 205 196 192 191 190 189 190 192 195 198
352 352 352 354 355 355 355 355 356 359 1 4 6 9 10 11 13 16 18 21 23 25 27 28 29 28 26 23 21 19 17 11 288 205 196 194 192 191 190 190 192 193 195
352 352 353 354 355 356 355 356 357 360 2 5 7 10 12 13 14 17 19 22 24 26 28 30 31 30 29 26 23 21 21 19 10 209 197 194 194 193 193 192 192 193 194
352 353 353 355 356 356 356 356 357 0 4 6 7 10 13 15 16 17 19 21 24 26 28 30 31 32 32 30 27 24 24 25 25 36 199 196 195 195 195 194 193 193 193
352 353 354 355 356 357 357 357 357 1 4 6 8 10 13 15 17 18 19 20 22 25 28 30 31 33 34 34 32 30 27 25 28 34 192 198 197 197 197 197 196 194 193
352 353 354 355 356 357 357 357 357 0 4 7 8 11 13 15 17 17 18 20 21 23 26 28 30 32 33 34 34 34 32 30 29 31 51 195 199 199 199 199 199 197 194
Height
5791 5780 5767 5753 5737 5721 5706 5689 5671 5652 5634 5618 5604 5591 5577 5563 5551 5538 5527 5517 5508 5500 5493 5487 5482 5478 5475 5474 5474 5476 5480 5486 5493 5503 5513 5522 5531 5541 5555 5569 5582 5598 5614
5781 5769 5756 5740 5725 5709 5692 5674 5654 5636 5619 5603 5589 5576 5562 5549 5536 5524 5512 5502 5494 5485 5478 5471 5465 5461 5457 5455 5454 5454 5458 5463 5469 5480 5492 5502 5511 5519 5531 5542 5557 5574 5591
5772 5759 5744 5729 5714 5697 5678 5659 5639 5621 5606 5591 5577 5564 5550 5536 5524 5513 5502 5492 5482 5474 5466 5459 5452 5447 5442 5439 5436 5435 5437 5442 5447 5455 5467 5479 5489 5500 5510 5519 5533 5549 5566
5762 5748 5734 5719 5702 5683 5664 5644 5625 5609 5593 5579 5565 5551 5538 5526 5514 5504 5493 5482 5472 5463 5455 5447 5441 5435 5429 5425 5422 5419 5419 5422 5427 5433 5443 5455 5467 5478 5489 5500 5512 5526 5543
5753 5740 5724 5707 5689 5670 5650 5631 5613 5597 5583 5568 5553 5539 5526 5514 5504 5494 5483 5472 5461 5451 5443 5435 5428 5421 5416 5411 5408 5405 5403 5404 5408 5413 5421 5432 5445 5458 5469 5480 5491 5505 5520
5746 5730 5714 5696 5677 5658 5639 5620 5604 5588 5573 5558 5543 5528 5516 5506 5496 5485 5474 5463 5452 5440 5430 5421 5413 5407 5401 5396 5393 5390 5389 5388 5390 5395 5401 5410 5423 5437 5451 5463 5471 5484 5498
5737 5720 5704 5686 5667 5649 5630 5612 5595 5579 5564 5548 5533 5518 5507 5496 5486 5475 5463 5451 5440 5428 5416 5406 5397 5390 5384 5380 5377 5375 5373 5374 5375 5378 5383 5390 5401 5415 5431 5445 5455 5465 5478
5727 5711 5695 5677 5658 5639 5620 5603 5587 5571 5555 5539 5524 5510 5497 5486 5475 5462 5449 5436 5423 5411 5399 5388 5379 5371 5365 5362 5360 5359 5358 5359 5360 5362 5366 5373 5382 5395 5410 5426 5439 5449 5459
5719 5703 5686 5667 5648 5629 5611 5595 5579 5563 5546 5530 5516 5502 5489 5477 5465 5451 5436 5421 5406 5391 5378 5366 5357 5350 5344 5341 5341 5341 5342 5344 5346 5347 5351 5358 5366 5377 5391 5407 5422 5435 5444
5711 5694 5676 5658 5639 5621 5603 5586 5570 5554 5538 5523 5507 5493 5481 5468 5454 5439 5423 5406 5388 5371 5355 5342 5332 5325 5321 5319 5321 5323 5326 5330 5332 5334 5337 5344 5352 5361 5374 5389 5406 5420 5431
5703 5686 5668 5650 5631 5613 5596 5580 5565 5549 5533 5517 5501 5486 5473 5459 5444 5427 5410 5391 5371 5350 5332 5316 5305 5298 5295 5296 5300 5305 5310 5316 5320 5323 5326 5331 5339 5348 5360 5375 5391 5407 5419
5695 5679 5661 5643 5625 5608 5591 5576 5560 5544 5528 5511 5495 5480 5466 5451 5435 5417 5398 5377 5353 5330 5310 5295 5285 5278 5276 5278 5283 5289 5297 5304 5308 5312 5315 5320 5328 5337 5348 5362 5378 5393 5408
5688 5672 5655 5638 5621 5603 5587 5571 5555 5539 5523 5506 5489 5474 5459 5444 5428 5409 5388 5364 5339 5316 5298 5286 5278 5273 5270 5269 5273 5279 5286 5293 5299 5303 5307 5312 5319 5328 5338 5351 5367 5382 5396
5682 5667 5651 5634 5616 5598 5582 5566 5551 5535 5519 5502 5485 5470 5455 5438 5421 5401 5379 5354 5329 5308 5293 5285 5280 5276 5272 5271 5272 5276 5281 5286 5291 5296 5300 5305 5312 5321 5331 5343 5357 5372 5385
5677 5662 5647 5629 5611 5594 5578 5563 5548 5532 5516 5499 5482 5466 5450 5433 5416 5396 5374 5348 5324 5305 5293 5286 5282 5279 5276 5274 5274 5276 5279 5283 5287 5290 5294 5299 5306 5315 5325 5337 5350 5363 5376
5673 5658 5642 5625 5608 5591 5575 5560 5544 5529 5513 5496 5479 5463 5447 5430 5413 5393 5371 5347 5324 5305 5294 5287 5284 5281 5279 5277 5277 5278 5280 5282 5284 5287 5291 5296 5303 5311 5320 5331 5343 5356 5367
5670 5655 5639 5622 5605 5588 5573 5557 5542 5527 5511 5495 5478 5462 5446 5429 5411 5392 5371 5349 5327 5308 5296 5289 5285 5283 5281 5280 5280 5281 5281 5282 5283 5285 5288 5293 5300 5308 5317 5327 5338 5349 5360
5666 5651 5634 5618 5601 5585 5569 5554 5540 5525 5510 5495 5479 5462 5447 5430 5413 5395 5375 5353 5332 5313 5300 5292 5287 5285 5283 5282 5282 5282 5282 5282 5282 5284 5287 5292 5299 5306 5315 5325 5335 5344 5354
5663 5647 5632 5616 5599 5583 5567 5553 5539 5524 5510 5496 5480 5464 5448 5433 5417 5400 5381 5360 5340 5321 5307 5297 5291 5287 5286 5284 5283 5282 5281 5281 5282 5284 5287 5292 5299 5306 5314 5323 5332 5341 5349
5659 5644 5629 5613 5596 5581 5566 5553 5539 5525 5512 5498 5482 5466 5450 5435 5420 5404 5386 5367 5348 5331 5315 5304 5297 5292 5289 5286 5284 5282 5281 5281 5282 5284 5288 5293 5299 5306 5313 5322 5330 5338 5345
5656 5641 5626 5611 5595 5580 5566 5553 5539 5525 5512 5498 5483 5469 5454 5439 5424 5408 5392 5375 5358 5342 5326 5313 5304 5298 5293 5289 5286 5284 5283 5282 5283 5285 5289 5294 5300 5306 5314 5321 5329 5336 5342
5653 5639 5624 5609 5594 5579 5566 5552 5539 5526 5512 5499 5485 5472 5458 5444 5430 5415 5401 5386 5370 5355 5339 5325 5313 5304 5298 5294 5290 5287 5285 5284 5285 5287 5290 5295 5300 5307 5314 5321 5328 5334 5341
5650 5636 5622 5608 5593 5579 5566 5553 5540 5527 5514 5501 5488 5476 5463 5450 5437 5424 5410 5396 5382 5367 5352 5338 5325 5313 5305 5299 5294 5291 5288 5287 5287 5288 5291 5295 5301 5308 5314 5321 5327 5334 5340
5648 5634 5620 5606 5592 5579 5566 5553 5541 5528 5516 5504 5492 5480 5468 5457 5444 5431 5418 5406 5393 5379 5364 5350 5337 5325 5314 5306 5300 5295 5292 5290 5290 5290 5292 5296 5301 5308 5314 5321 5327 5333 5339
5645 5632 5618 5605 5592 5579 5566 5554 5542 5530 5518 5507 5496 5484 5473 5461 5449 5437 5425 5413 5401 5388 5376 5363 5350 5338 5327 5316 5307 5301 5297 5295 5293 5293 5294 5297 5302 5307 5314 5320 5327 5333 5338
5643 5630 5617 5604 5592 5579 5566 5555 5544 5532 5521 5510 5500 5489 5477 5466 5454 5442 5430 5419 5408 5396 5385 5373 5361 5350 5338 5328 5319 5310 5303 5299 5297 5296 5296 5298 5302 5307 5313 5319 5326 5332 5338